Regional Weather Roundup
Issued by NWS Little Rock, AR

Home | Current Version | Previous Version | Text Only | Print | Product List | Glossary Off
Versions: 1 2 3 4 5 6 7 8 9 10 11 12 13 14 15 16 17 18 19 20 21 22 23 24 25 26 27 28 29 30 31 32

000
ASUS44 KLZK 101212
RWRLZK

WEATHER ROUNDUP FOR ARKANSAS
NATIONAL WEATHER SERVICE LITTLE ROCK AR
600 AM CST SAT DEC 10 2016

NOTE: "FAIR" INDICATES FEW OR NO CLOUDS BELOW 12,000 FEET WITH NO
SIGNIFICANT WEATHER AND/OR OBSTRUCTIONS TO VISIBILITY.

ARZ001-003-010-029-101300-
NORTHWEST ARKANSAS

CITY           SKY/WX    TMP DP  RH WIND       PRES   REMARKS
FAYETTEVILLE   CLOUDY    33  17  51 S3        30.46F
6HR MIN TEMP:  32; 6HR MAX TEMP:  33;

FORT SMITH     CLOUDY    34  21  59 E7        30.51F WCI  28
6HR MIN TEMP:  34; 6HR MAX TEMP:  35;

HARRISON       CLOUDY    29  19  66 SE7       30.48F WCI  22
6HR MIN TEMP:  26; 6HR MAX TEMP:  29;

BENTONVILLE    CLOUDY    34  14  44 S6        30.46F WCI  29
6HR MIN TEMP:  34; 6HR MAX TEMP:  34;

ROGERS         CLOUDY    33  17  51 SE6       30.46F WCI  28
6HR MIN TEMP:  32; 6HR MAX TEMP:  33;

SILOAM SPGS    CLOUDY    34  16  47 S6        30.46S WCI  29
6HR MIN TEMP:  32; 6HR MAX TEMP:  34;

HIGHFILL       CLOUDY    34  17  50 S7        30.45F WCI  28
6HR MIN TEMP:  33; 6HR MAX TEMP:  34;

SPRINGDALE     CLOUDY    34  16  47 SE5       30.47  WCI  30
$$

ARZ004-005-016-101300-
NORTH CENTRAL ARKANSAS

CITY           SKY/WX    TMP DP  RH WIND       PRES   REMARKS
BATESVILLE     PTCLDY    19  16  86 CALM      30.60R
6HR MIN TEMP:  19; 6HR MAX TEMP:  23;

FLIPPIN        CLOUDY    27  18  69 E3        30.51S
6HR MIN TEMP:  21; 6HR MAX TEMP:  27;

MTN HOME       CLOUDY    26  18  71 S3        30.52S
6HR MIN TEMP:  23; 6HR MAX TEMP:  27;

$$

ARZ040-041-101300-
WEST CENTRAL ARKANSAS

CITY           SKY/WX    TMP DP  RH WIND       PRES   REMARKS
MENA           CLOUDY    36  30  80 CALM      30.50S
MOUNT IDA      CLOUDY    34  21  59 CALM      30.51S
6HR MIN TEMP:  34; 6HR MAX TEMP:  35;

$$

ARZ009-017-025-026-028-101300-
NORTHEAST ARKANSAS

CITY           SKY/WX    TMP DP  RH WIND       PRES   REMARKS
CORNING        FAIR      23  23 100 CALM      30.61S
JONESBORO      CLEAR     21  19  92 CALM      30.61R
6HR MIN TEMP:  21; 6HR MAX TEMP:  24;

NEWPORT        CLEAR     23  21  92 NW3       30.62R
6HR MIN TEMP:  22; 6HR MAX TEMP:  24;

WALNUT RIDGE   CLEAR     23  19  86 N3        30.60R
6HR MIN TEMP:  21; 6HR MAX TEMP:  27;

BLYTHEVILLE    CLEAR     22  18  85 CALM      30.61R
6HR MIN TEMP:  22; 6HR MAX TEMP:  26;

$$

ARZ022-023-033-042-044-101300-
CENTRAL ARKANSAS

CITY           SKY/WX    TMP DP  RH WIND       PRES   REMARKS
LITTLE ROCK    CLOUDY    28  27  96 NE5       30.60R WCI  23
6HR MIN TEMP:  23; 6HR MAX TEMP:  28;

N LITTLE ROCK    N/A     29  24  82 CALM      30.62R
6HR MIN TEMP:  25; 6HR MAX TEMP:  29;

JACKSONVILLE   CLOUDY    25  22  87 E2        30.59R
6HR MIN TEMP:  20; 6HR MAX TEMP:  25;

SEARCY         MOCLDY    19  18  95 CALM      30.63R
6HR MIN TEMP:  18; 6HR MAX TEMP:  21;

HOT SPRINGS    CLOUDY    33  22  63 E3        30.57R
6HR MIN TEMP:  33; 6HR MAX TEMP:  33;

RUSSELLVILLE   CLOUDY    30  21  69 SE3       30.56S
6HR MIN TEMP:  28; 6HR MAX TEMP:  31;

CLINTON        CLOUDY    25  21  86 CALM      30.58F
$$

ARZ036-101300-
EAST ARKANSAS

CITY           SKY/WX    TMP DP  RH WIND       PRES   REMARKS
WEST MEMPHIS   PTCLDY    21  18  88 CALM      30.60R
6HR MIN TEMP:  20; 6HR MAX TEMP:  25;

$$

ARZ050-053-066-070-073-101300-
SOUTHWEST ARKANSAS

CITY           SKY/WX    TMP DP  RH WIND       PRES   REMARKS
ARKADELPHIA    CLOUDY    33  25  72 NE3       30.59R
6HR MIN TEMP:  33; 6HR MAX TEMP:  33;

CAMDEN         CLOUDY    32  23  69 CALM      30.59R
TEXARKANA      CLOUDY    35  25  66 SE3       30.54S
6HR MIN TEMP:  35; 6HR MAX TEMP:  37;

EL DORADO      CLOUDY    32  25  75 NE3       30.57R
6HR MIN TEMP:  27; 6HR MAX TEMP:  33;

DE QUEEN       CLOUDY    35  27  72 E6        30.53S WCI  30
6HR MIN TEMP:  35; 6HR MAX TEMP:  38;

$$

ARZ056-057-069-101300-
SOUTHEAST ARKANSAS

CITY           SKY/WX    TMP DP  RH WIND       PRES   REMARKS
PINE BLUFF     CLOUDY    29  26  89 CALM      30.60R
6HR MIN TEMP:  24; 6HR MAX TEMP:  29;

STUTTGART      PTCLDY    27  18  69 E3        30.60R
6HR MIN TEMP:  27; 6HR MAX TEMP:  28;

MONTICELLO     PTCLDY    25  22  88 E3        30.58R
6HR MIN TEMP:  24; 6HR MAX TEMP:  27;


$$






USA.gov is the U.S. government's official web portal to all federal, state and local government web resources and services.